Aeroporto :
LOGIN :

Iscrizione | Disclaimer

   EN    FR    IT 

 










Sommario :    VFR   VFR Marginale   IFR   IFR Intensivo   IFR Molto Intensivo
Visibilità : 
Base nubi : 
>= 8 km
>= 3000ft
5 / 8 km
1000 / 3000 ft
1500m / 5 km
500 / 1000 ft
800 / 1500m
200 / 500 ft
< 800m
< 200 ft
Simboli :   Temporali  Nebbia  Neve Forte  Precipitazioni Forti  Vento > 20 kt
SIGMETs :   Varie  Temporali  Ghiacco  Turbolenza  Onda orograficha  Ceneri Vulcaniche






- Altitudine del aeroporto : 46 ft
- Codice IATA : PAF


LPMT - Montijo Air Base

ULTIMO METAR :
  • 071200Z 28005KT CAVOK 29/14 Q1014

METARs OBSOLETI :
  • 071100Z 27005KT 230V310 CAVOK 27/17 Q1015
  • 071000Z 03004KT 340V060 CAVOK 25/17 Q1014

TAF TAF LPMT
Valido dal 07 a 12 ore il 08 a 12 ore UTC


071108Z 0712/0812 VRB02KT CAVOK
BECMG 0713/0715 26008KT
BECMG 0718/0720 32010KT
BECMG 0801/0804 28005KT BKN014
BECMG 0807/0809 FEW020



MetMap, La meteo Aeronautica in un colpo d'occhio ! - Copyright ORBIFLY Dicembre 2007 - Disclaimer

ORBIFLY MET'MAP TEAM :

Programmazione e sviluppo : Alexandra Zaïnal
Concezione : Baudouin d'Aumeries
Aiuto per la programmazione : Marc-Olivier Méhu
Supporto tecnico e logistico : Manuel Goepfert
Aiuto per la traduzione : Arnaldo La Scala

Contatto : metmap@orbifly.com




FONTI E CREDITI :

   NOAA